KY4EF Weather Reports


time (UTC)temp
F
wind
direction
speed
knots
gust
knots
rain 1hr
in
rain 24hr
in
rain mn
in
humidity
%
barometer
mb
20260504035411 41 290 0.0 0.0 0.00 0.00 0.00 90 1016.6
20260504034908 42 291 0.0 0.0 0.00 0.00 0.00 90 1016.7
20260504034405 42 298 0.0 0.0 0.00 0.00 0.00 89 1016.8
20260504033902 42 320 0.0 0.0 0.00 0.00 0.00 89 1016.7
20260504033400 42 298 0.0 0.0 0.00 0.00 0.00 88 1016.7
20260504032856 43 351 0.0 0.0 0.00 0.00 0.00 88 1016.5
20260504032353 43 294 0.0 0.0 0.00 0.00 0.00 87 1016.6
20260504031850 43 286 0.0 0.0 0.00 0.00 0.00 87 1016.6
20260504031347 43 297 0.0 0.0 0.00 0.00 0.00 87 1016.5
20260504030843 43 298 0.0 0.0 0.00 0.00 0.00 87 1016.6
20260504030341 44 299 0.0 0.0 0.00 0.00 0.00 87 1016.3
20260504025837 44 317 0.9 0.9 0.00 0.00 0.00 85 1016.3
20260504025334 44 251 0.0 0.0 0.00 0.00 0.00 84 1016.2
20260504024831 44 274 0.0 0.0 0.00 0.00 0.00 84 1016.3
20260504024327 44 272 0.0 0.0 0.00 0.00 0.00 83 1016.4
20260504023824 45 264 0.0 0.9 0.00 0.00 0.00 84 1016.6
20260504023321 45 290 0.0 0.0 0.00 0.00 0.00 83 1016.7
20260504022816 45 211 0.0 0.0 0.00 0.00 0.00 82 1016.6
20260504022314 45 348 0.0 0.0 0.00 0.00 0.00 83 1016.6
20260504021810 45 348 0.0 0.0 0.00 0.00 0.00 83 1016.5
20260504021308 46 351 0.0 0.0 0.00 0.00 0.00 82 1016.7
20260504020804 46 64 0.0 0.0 0.00 0.00 0.00 81 1016.5
20260504020301 47 80 0.9 0.9 0.00 0.00 0.00 78 1016.6
20260504015757 47 250 0.0 0.9 0.00 0.00 0.00 76 1016.4
20260504015253 47 253 0.0 0.0 0.00 0.00 0.00 77 1016.4
20260504014749 47 254 0.0 0.0 0.00 0.00 0.00 76 1016.3
20260504014246 47 254 0.0 0.0 0.00 0.00 0.00 75 1016.2
20260504013744 48 254 0.0 0.0 0.00 0.00 0.00 75 1016.0
20260504013241 48 253 0.0 0.0 0.00 0.00 0.00 75 1016.1
20260504012737 49 253 0.0 0.0 0.00 0.00 0.00 72 1016.0
20260504012235 49 253 0.0 0.0 0.00 0.00 0.00 72 1016.0
20260504011732 49 261 0.0 0.0 0.00 0.00 0.00 73 1016.1
20260504011229 50 315 0.0 0.0 0.00 0.00 0.00 71 1016.1
20260504010725 50 245 0.0 0.0 0.00 0.00 0.00 71 1015.8
20260504010221 50 251 0.9 0.9 0.00 0.00 0.00 68 1016.0
20260504005717 51 276 0.0 0.0 0.00 0.00 0.00 69 1015.8
20260504005215 51 238 0.0 0.9 0.00 0.00 0.00 68 1015.9
20260504004712 52 265 0.0 0.0 0.00 0.00 0.00 67 1015.9
20260504004209 53 278 0.0 0.0 0.00 0.00 0.00 65 1015.8
20260504003706 53 171 0.9 0.9 0.00 0.00 0.00 62 1015.7
20260504003203 53 277 0.0 0.0 0.00 0.00 0.00 62 1015.7
20260504002659 54 292 0.0 0.9 0.00 0.00 0.00 59 1015.5
20260504002156 55 241 0.0 0.0 0.00 0.00 0.00 58 1015.7
20260504001649 55 130 0.0 0.0 0.00 0.00 0.00 58 1015.3
20260504001145 56 129 0.0 0.0 0.00 0.00 0.00 57 1015.2
20260504000642 56 133 0.9 0.9 0.00 0.00 0.00 54 1015.2
20260504000140 57 128 1.7 1.7 0.00 0.00 0.00 52 1015.1
20260503235638 59 268 0.9 0.9 0.00 0.00 0.00 49 1015.3
20260503235134 59 282 0.0 0.0 0.00 0.00 0.00 45 1015.2
20260503234632 60 291 0.9 0.9 0.00 0.00 0.00 45 1015.3
20260503234130 60 299 0.9 0.9 0.00 0.00 0.00 44 1015.3
20260503233627 60 299 0.0 0.9 0.00 0.00 0.00 44 1015.3
20260503233122 61 275 1.7 1.7 0.00 0.00 0.00 43 1015.1
20260503232620 61 277 0.9 0.9 0.00 0.00 0.00 43 1015.2
20260503232117 61 301 1.7 1.7 0.00 0.00 0.00 44 1015.2
20260503231615 61 304 1.7 1.7 0.00 0.00 0.00 42 1015.1
20260503231111 62 292 0.9 0.9 0.00 0.00 0.00 42 1015.3
20260503230609 62 309 0.9 1.7 0.00 0.00 0.00 42 1015.3
20260503230105 62 306 1.7 1.7 0.00 0.00 0.00 41 1015.3
20260503225603 62 292 0.9 0.9 0.00 0.00 0.00 42 1015.3
20260503225057 62 318 1.7 2.6 0.00 0.00 0.00 42 1015.3
20260503224555 62 297 2.6 2.6 0.00 0.00 0.00 40 1015.1
20260503224053 62 314 0.9 0.9 0.00 0.00 0.00 39 1015.5
20260503223550 62 297 1.7 2.6 0.00 0.00 0.00 39 1015.3
20260503223045 62 285 2.6 3.5 0.00 0.00 0.00 40 1015.5
20260503222544 63 290 2.6 2.6 0.00 0.00 0.00 39 1015.2
20260503222042 63 311 2.6 2.6 0.00 0.00 0.00 39 1015.2
20260503221539 63 300 2.6 2.6 0.00 0.00 0.00 38 1015.5
20260503221036 63 299 2.6 2.6 0.00 0.00 0.00 39 1015.2
20260503220532 64 24 2.6 2.6 0.00 0.00 0.00 38 1015.2
20260503220029 64 271 1.7 1.7 0.00 0.00 0.00 38 1015.5
20260503215527 65 301 1.7 2.6 0.00 0.00 0.00 37 1015.3
20260503215024 65 287 1.7 1.7 0.00 0.00 0.00 37 1015.2
20260503214522 66 336 1.7 2.6 0.00 0.00 0.00 37 1015.5
20260503214018 66 340 1.7 1.7 0.00 0.00 0.00 37 1015.3
20260503213517 67 348 1.7 2.6 0.00 0.00 0.00 34 1015.5
20260503213013 67 293 0.9 1.7 0.00 0.00 0.00 36 1015.5
20260503212511 67 295 2.6 2.6 0.00 0.00 0.00 36 1015.5
20260503212008 66 333 2.6 2.6 0.00 0.00 0.00 36 1015.7
20260503211505 66 308 2.6 2.6 0.00 0.00 0.00 37 1015.5
20260503211000 66 283 1.7 1.7 0.00 0.00 0.00 37 1015.6
20260503210457 67 265 2.6 2.6 0.00 0.00 0.00 37 1015.7
20260503205952 67 255 0.9 0.9 0.00 0.00 0.00 37 1015.6
20260503205449 67 344 3.5 3.5 0.00 0.00 0.00 37 1015.8
20260503204945 68 297 1.7 1.7 0.00 0.00 0.00 37 1015.9
20260503204443 67 325 1.7 1.7 0.00 0.00 0.00 37 1015.8
20260503203939 67 328 3.5 3.5 0.00 0.00 0.00 38 1015.8
20260503203437 68 288 3.5 3.5 0.00 0.00 0.00 38 1015.9
20260503202934 68 291 1.7 1.7 0.00 0.00 0.00 38 1015.9
20260503202432 68 298 1.7 1.7 0.00 0.00 0.00 38 1015.8
20260503201930 67 180 1.7 1.7 0.00 0.00 0.00 37 1015.9
20260503201427 68 336 2.6 2.6 0.00 0.00 0.00 37 1016.0
20260503200924 68 305 0.9 0.9 0.00 0.00 0.00 37 1016.0
20260503200420 68 320 1.7 1.7 0.00 0.00 0.00 37 1016.3
20260503195917 71 277 2.6 2.6 0.00 0.00 0.00 36 1016.1
20260503195415 68 277 0.9 0.9 0.00 0.00 0.00 38 1016.3
20260503194911 68 296 1.7 1.7 0.00 0.00 0.00 40 1016.2
20260503194408 68 342 2.6 2.6 0.00 0.00 0.00 37 1016.2
20260503193904 69 3 1.7 1.7 0.00 0.00 0.00 37 1016.3
20260503193359 69 324 2.6 2.6 0.00 0.00 0.00 38 1016.4
20260503192855 69 289 0.0 0.9 0.00 0.00 0.00 38 1016.6
20260503192351 71 276 0.9 1.7 0.00 0.00 0.00 38 1016.4
20260503191847 70 347 0.9 1.7 0.00 0.00 0.00 37 1016.3
20260503191345 70 292 2.6 2.6 0.00 0.00 0.00 39 1016.6
20260503190841 70 319 1.7 1.7 0.00 0.00 0.00 38 1016.7
20260503190338 69 323 0.9 1.7 0.00 0.00 0.00 36 1016.6
20260503185836 70 276 0.9 1.7 0.00 0.00 0.00 38 1016.7
20260503185331 69 298 1.7 1.7 0.00 0.00 0.00 38 1016.7
20260503184831 70 342 2.6 5.2 0.00 0.00 0.00 35 1016.8
20260503184328 69 260 0.9 0.9 0.00 0.00 0.00 38 1016.8
20260503183823 69 278 1.7 2.6 0.00 0.00 0.00 37 1017.1
20260503183321 67 316 1.7 2.6 0.00 0.00 0.00 38 1017.1
20260503182818 68 324 1.7 1.7 0.00 0.00 0.00 38 1017.2
20260503182317 69 307 0.9 1.7 0.00 0.00 0.00 36 1017.2
20260503181814 68 123 1.7 1.7 0.00 0.00 0.00 39 1017.2
20260503181311 71 80 1.7 1.7 0.00 0.00 0.00 34 1017.2
20260503180807 69 268 0.9 1.7 0.00 0.00 0.00 38 1017.2
20260503180306 67 336 0.9 1.7 0.00 0.00 0.00 38 1017.1
20260503175801 69 304 1.7 1.7 0.00 0.00 0.00 37 1017.6
20260503175300 67 286 0.9 1.7 0.00 0.00 0.00 37 1017.2
20260503174755 66 268 0.9 1.7 0.00 0.00 0.00 37 1017.4
20260503174253 67 338 1.7 2.6 0.00 0.00 0.00 37 1017.2
20260503173748 66 3 1.7 2.6 0.00 0.00 0.00 39 1017.4
20260503173244 66 294 0.9 0.9 0.00 0.00 0.00 38 1017.6
20260503172741 63 62 0.9 0.9 0.00 0.00 0.00 43 1017.7
20260503172238 66 134 0.9 0.9 0.00 0.00 0.00 37 1017.7
20260503171735 65 256 0.0 0.0 0.00 0.00 0.00 39 1017.8
20260503171232 66 185 0.0 0.9 0.00 0.00 0.00 37 1018.0
20260503170729 68 256 0.9 1.7 0.00 0.00 0.00 39 1017.9
20260503170226 66 305 1.7 1.7 0.00 0.00 0.00 40 1018.0
20260503160147 63 193 0.0 0.9 0.00 0.00 0.00 40 1018.9
20260503150618 61 340 1.7 2.6 0.00 0.00 0.00 40 1019.4
20260503150114 59 285 0.9 1.7 0.00 0.00 0.00 48 1019.4
20260503131008 47 45 0.0 0.0 0.00 0.00 0.00 79 1019.1
20260503130505 45 45 0.0 0.0 0.00 0.00 0.00 84 1019.2
20260503110355 34 164 0.0 0.0 0.00 0.00 0.00 99 1017.9
20260503090241 35 168 0.0 0.0 0.00 0.00 0.00 99 1017.1
20260503081209 37 168 0.0 0.0 0.00 0.00 0.00 98 1016.5
20260503080704 37 168 0.0 0.0 0.00 0.00 0.00 97 1016.6
20260503080201 37 168 0.0 0.0 0.00 0.00 0.00 97 1016.5
20260503072638 38 187 0.0 0.0 0.00 0.00 0.00 97 1016.2
20260503072135 38 187 0.0 0.0 0.00 0.00 0.00 97 1016.2
20260503071631 38 187 0.0 0.0 0.00 0.00 0.00 96 1016.2
20260503071122 38 187 0.0 0.0 0.00 0.00 0.00 96 1016.0
20260503070620 38 187 0.0 0.0 0.00 0.00 0.00 96 1016.2
20260503070118 38 187 0.0 0.0 0.00 0.00 0.00 96 1015.9
20260503055038 41 197 0.0 0.0 0.00 0.00 0.00 89 1015.8
20260503054534 42 197 0.0 0.0 0.00 0.00 0.00 89 1016.1
20260503054032 42 199 0.0 0.9 0.00 0.00 0.00 89 1016.0
20260503053530 42 230 0.0 0.0 0.00 0.00 0.00 89 1016.0
20260503053027 42 232 0.0 0.0 0.00 0.00 0.00 87 1015.8
20260503052524 43 230 0.0 0.0 0.00 0.00 0.00 86 1015.8
20260503052020 43 230 0.0 0.0 0.00 0.00 0.00 88 1015.9
20260503051515 43 230 0.0 0.0 0.00 0.00 0.00 87 1015.7
20260503051013 43 252 0.0 0.0 0.00 0.00 0.00 88 1015.8
20260503050509 44 269 0.0 0.0 0.00 0.00 0.00 86 1015.8
20260503050007 44 243 0.9 0.9 0.00 0.00 0.00 85 1015.9
20260503045504 44 256 0.0 0.0 0.00 0.00 0.00 85 1015.8
20260503045001 44 129 0.9 0.9 0.00 0.00 0.00 85 1015.7
20260503044457 44 116 0.9 0.9 0.00 0.00 0.00 85 1015.7
20260503043955 45 137 0.0 0.9 0.00 0.00 0.00 85 1016.0
20260503043451 45 137 0.0 0.0 0.00 0.00 0.00 85 1015.8
20260503042947 45 171 0.9 0.9 0.00 0.00 0.00 84 1015.8
20260503042444 44 121 0.0 0.0 0.00 0.00 0.00 84 1016.0
20260503041941 44 120 0.0 0.0 0.00 0.00 0.00 84 1016.0
20260503041438 44 128 0.0 0.0 0.00 0.00 0.00 84 1016.0
20260503040935 44 127 0.0 0.0 0.00 0.00 0.00 84 1016.0
20260503040432 44 49 0.0 0.0 0.00 0.00 0.00 83 1015.9
20260503035930 44 41 0.0 0.0 0.00 0.00 0.00 83 1015.8